Regional Weather Roundup
Issued by NWS Upton, NY

Current Version | Previous Version | Graphics & Text | Print | Product List | Glossary Off
Versions: 1 2 3 4 5 6 7 8 9 10 11 12 13 14 15 16 17 18 19 20 21 22 23 24 25 26 27 28 29 30 31 32 33 34 35 36 37 38 39 40 41 42 43 44 45 46 47 48 49 50

000
ASUS41 KOKX 030518
RWROKX

REGIONAL WEATHER ROUNDUP
NATIONAL WEATHER SERVICE NEW YORK NY
100 AM EDT WED JUN 03 2015

NOTE: "FAIR" INDICATES FEW OR NO CLOUDS BELOW 12,000 FEET WITH NO
SIGNIFICANT WEATHER AND/OR OBSTRUCTIONS TO VISIBILITY.

NYZ071-072-176-178-NJZ106-104-030600-
NEW YORK CITY METRO AREA


CITY           SKY/WX    TMP DP  RH WIND       PRES   REMARKS
CENTRAL PARK   CLOUDY    54  51  90 MISG      30.21S FOG
LAGUARDIA APRT CLOUDY    54  49  83 E7        30.18S
KENNEDY INTL   CLOUDY    54  51  90 NE5       30.19S
NEWARK/LIBERTY CLOUDY    55  51  86 NE6       30.18S
BRNX BOT. GARD   N/A     52  50  93 N2        30.20R
TETERBORO      CLOUDY    54  48  82 CALM      30.18S
$$

NYZ177-179-078>081-030600-
LONG ISLAND NEW YORK

CITY           SKY/WX    TMP DP  RH WIND       PRES   REMARKS
FARMINGDALE    CLOUDY    52  50  93 VRB3      30.18F
ISLIP          CLOUDY    51  48  89 NE6       30.16F
SHIRLEY        CLOUDY    50  48  93 VRB3      30.19S
WESTHAMPTON    CLOUDY    50  49  96 E3        30.20R
MONTAUK POINT    N/A     51  45  79 NE6       30.19F
$$

NYZ052-065-067-030600-
HUDSON VALLEY

CITY           SKY/WX    TMP DP  RH WIND       PRES   REMARKS
WHITE PLAINS   CLOUDY    52  50  93 E3        30.18S
NEWBURGH       MOCLDY    50  50 100 CALM      30.19F
MONTGOMERY     CLOUDY    50  30  46 CALM      30.17F HAZE
POUGHKEEPSIE   CLOUDY    51  49  92 CALM      30.18S
ALBANY         CLOUDY    54  44  69 N7        30.20S
$$

NJZ001-105-106-008-010-013-015-019>022-104-030600-
NEW JERSEY

CITY           SKY/WX    TMP DP  RH WIND       PRES   REMARKS
NEWARK/LIBERTY CLOUDY    55  51  86 NE6       30.18S
TETERBORO      CLOUDY    54  48  82 CALM      30.18S
CALDWELL       CLOUDY    53  50  89 CALM      30.19S
MORRISTOWN     CLOUDY    55  52  88 CALM      30.19S
SOMERVILLE     CLOUDY    55  53  93 CALM      30.16S
SUSSEX         FOG       51  49  92 CALM      30.19S VSB 3/4
ANDOVER          N/A     53  52  96 CALM      30.18S
TRENTON        LGT RAIN  54  52  93 E10       30.16F
MILLVILLE      LGT RAIN  54  52  93 NE12      30.15R
ATLANTIC CITY  LGT RAIN  54  52  93 NE13      30.14S
WRIGHTSTOWN    CLOUDY    52  50  93 NE6       30.14S
TOMS RIVER     CLOUDY   N/A N/A N/A E6        30.16S
BELMAR         CLOUDY    54  46  76 NE10      30.16F
$$

PAZ047>061-062-071-030600-
EASTERN PENNSYLVANIA

CITY           SKY/WX    TMP DP  RH WIND       PRES   REMARKS
PHILADELPHIA   CLOUDY    56  52  86 E8        30.17S
ALLENTOWN      CLOUDY    55  53  93 NE5       30.17F
SCRANTON       MOCLDY    53  49  86 E3        30.18R
$$

CTZ002-004>006-009-010-012-RIZ004-006-007-MAZ004-011-015-030600-
SOUTHERN NEW ENGLAND
 IN CT

CITY           SKY/WX    TMP DP  RH WIND       PRES   REMARKS
BRADLEY INTL   CLOUDY    51  47  86 CALM      30.18F
HARTFORD       CLOUDY    49  46  90 SE5       30.19F
DANBURY        CLOUDY    50  46  86 CALM      30.19F
WTRBRY/OXFORD  CLOUDY    50  43  76 NE3       30.20S
BRIDGEPORT     CLOUDY   N/A N/A N/A MISG      30.19S
MERIDEN        CLOUDY    49  47  93 CALM      30.19F
NEW HAVEN      CLOUDY    50  47  89 CALM      30.19F
CHESTER        NOT AVBL
GROTON         CLOUDY    49  45  86 NE5       30.18F
WILLIMANTIC    CLOUDY    48  46  93 CALM      30.19F

 IN RI

CITY           SKY/WX    TMP DP  RH WIND       PRES   REMARKS
PROVIDENCE     CLOUDY    48  44  86 NE8       30.19F
BLOCK ISLAND   CLOUDY    48  43  81 NE9       30.18F
WESTERLY       CLOUDY    49  46  90 CALM      30.19F

 IN MA

CITY           SKY/WX    TMP DP  RH WIND       PRES   REMARKS
BOSTON         CLOUDY    47  45  93 NW3       30.21S
WORCESTER      CLOUDY    46  43  89 N3        30.18S
WESTFIELD      CLOUDY    49  46  90 CALM      30.19S
PROVINCETOWN   MOCLDY    46  43  87 N9        30.19S
NANTUCKET      CLOUDY    51  45  79 N18       30.15S
$$

ANZ330-335-338-340-345-350-353-355-030600-
COASTAL MARINE OBSERVATIONS


STATION/POSITION TIME  SKY/WX   TEMP    WIND        PRES    VSBY  WAVE
                                AIR SEA DIR/SP/G                  HT/PER
                 (UTC)          (F)     (DEG/KT/KT) (MB)    (MI)  (FT/S)
NY HARB ENTRANCE 0450            53 56   70/ 12/ 14 1021.5          3/ 6
4S FIRE IS       0403               54                N/A           3/ 8
20S FIRE ISLAND  0450            53 56   60/ 16/ 17 1021.3          5/ 6
GREAT SOUTH BAY  0400            53 64   70/ 14/ 16   N/A
23SW MTP         0450            51 56   40/ 17/ 21 1021.0          5/ 6
HUDSON CANYON    NOT AVBL
KINGS POINT      0400            53 56   50/  2/  2 1021.6
CENTRAL LI SOUND 0500            51 56   60/ 12/ 14   N/A
EASTERN LI SOUND 0400            51      30/ 10/ 12   N/A
ROBBINS REEF     0400            54      70/  9/ 12 1021.1
$$


>>>>>>>>>>>>>>>>>>>>>>>>>>>> KEY <<<<<<<<<<<<<<<<<<<<<<<<<<<
>                                                          <
>     SKY/WX - SKY CONDITION/PRESENT WEATHER               <
>     TMP    - TEMPERATURE IN FAHRENHEIT                   <
>     DP     - DEWPOINT IN FAHRENHEIT                      <
>     RH     - RELATIVE HUMIDITY IN PERCENT                <
>     WIND   - DIRECTION AND SPEED IN MPH                  <
>     PRES   - MEAN SEA LEVEL PRESSURE IN INCHES OF HG     <
>     WCI    - WIND CHILL INDEX                            <
>     VSB    - VISIBILITY IN MILES                         <
>     HX     - HEAT INDEX                                  <
>     TC     - TEMPERATURE IN CELSIUS                      <
>     VRB    - VARIABLE WIND DIRECTION                     <
>                                                          <
>>>>>>>>>>>>>>>>>>>>>>>>>>>> KEY <<<<<<<<<<<<<<<<<<<<<<<<<<<





USA.gov is the U.S. government's official web portal to all federal, state and local government web resources and services.